| time (UTC) | temp F | wind direction | speed MPH | gust MPH | rain 1hr in | rain 24hr in | rain mn in | humidity % | barometer mb |
| 20260905060001 | 68 | 9 | 16.0 | 36.0 | 0.00 | 0.00 | 0.00 | 57 | 1017.7 |
| 20260905054558 | 68 | 333 | 14.0 | 38.0 | 0.00 | 0.00 | 0.00 | 56 | 1017.1 |
| 20260905053056 | 68 | 44 | 20.0 | 38.0 | 0.00 | 0.00 | 0.00 | 57 | 1016.2 |
| 20260905051551 | 68 | 358 | 9.0 | 28.0 | 0.00 | 0.00 | 0.00 | 59 | 1015.7 |
| 20260905050047 | 68 | 8 | 18.0 | 36.0 | 0.00 | 0.00 | 0.00 | 59 | 1015.3 |
| 20260905044544 | 68 | 37 | 20.0 | 41.0 | 0.00 | 0.00 | 0.00 | 61 | 1014.7 |
| 20260905043106 | 68 | 32 | 19.0 | 35.0 | 0.00 | 0.00 | 0.00 | 64 | 1013.9 |
| 20260905041539 | 69 | 19 | 13.0 | 28.0 | 0.00 | 0.00 | 0.00 | 63 | 1015.0 |
| 20260905040046 | 70 | 46 | 18.0 | 46.0 | 0.00 | 0.00 | 0.00 | 60 | 1014.7 |
| 20260905034533 | 71 | 62 | 19.0 | 37.0 | 0.00 | 0.00 | 0.00 | 65 | 1014.0 |
| 20260905033030 | 72 | 34 | 19.0 | 40.0 | 0.00 | 0.00 | 0.00 | 67 | 1013.7 |
| 20260905031527 | 74 | 50 | 8.0 | 24.0 | 0.00 | 0.00 | 0.00 | 67 | 1013.3 |
| 20260905030024 | 76 | 338 | 14.0 | 36.0 | 0.00 | 0.00 | 0.00 | 62 | 1012.3 |
| 20260905024523 | 76 | 21 | 0.0 | 0.0 | 0.00 | 0.00 | 0.00 | 54 | 1012.1 |
| 20260905023021 | 76 | 21 | 0.0 | 19.0 | 0.00 | 0.00 | 0.00 | 54 | 1011.9 |
| 20260905021520 | 76 | 335 | 1.0 | 11.0 | 0.00 | 0.00 | 0.00 | 53 | 1012.0 |
| 20260905020017 | 76 | 334 | 0.0 | 0.0 | 0.00 | 0.00 | 0.00 | 54 | 1011.7 |
| 20260905014519 | 76 | 334 | 0.0 | 0.0 | 0.00 | 0.00 | 0.00 | 53 | 1011.5 |
| 20260905013013 | 75 | 334 | 0.0 | 11.0 | 0.00 | 0.00 | 0.00 | 56 | 1011.7 |
| 20260905011508 | 72 | 336 | 3.0 | 22.0 | 0.00 | 0.00 | 0.00 | 61 | 1011.6 |
| 20260905010014 | 70 | 230 | 0.0 | 0.0 | 0.00 | 0.00 | 0.00 | 69 | 1011.5 |
| 20260905004508 | 71 | 230 | 0.0 | 0.0 | 0.00 | 0.00 | 0.00 | 71 | 1011.5 |
| 20260905003005 | 70 | 230 | 0.0 | 0.0 | 0.00 | 0.00 | 0.00 | 67 | 1011.3 |
| 20260905001504 | 70 | 230 | 0.0 | 0.0 | 0.00 | 0.00 | 0.00 | 68 | 1011.3 |
| 20260905000008 | 70 | 230 | 0.0 | 0.0 | 0.00 | 0.00 | 0.00 | 70 | 1011.2 |
| 20260904234502 | 70 | 230 | 0.0 | 0.0 | 0.00 | 0.00 | 0.00 | 68 | 1011.3 |
| 20260904233107 | 70 | 230 | 0.0 | 0.0 | 0.00 | 0.00 | 0.00 | 66 | 1011.2 |
| 20260904231559 | 71 | 230 | 0.0 | 0.0 | 0.00 | 0.00 | 0.00 | 67 | 1011.1 |
| 20260904224556 | 71 | 230 | 0.0 | 0.0 | 0.00 | 0.00 | 0.00 | 66 | 1010.9 |
| 20260904223057 | 71 | 230 | 0.0 | 0.0 | 0.00 | 0.00 | 0.00 | 66 | 1010.8 |
| 20260904221551 | 72 | 230 | 0.0 | 0.0 | 0.00 | 0.00 | 0.00 | 66 | 1010.9 |
| 20260904220108 | 72 | 230 | 0.0 | 0.0 | 0.00 | 0.00 | 0.00 | 63 | 1010.9 |
| 20260904214548 | 73 | 230 | 0.0 | 0.0 | 0.00 | 0.00 | 0.00 | 64 | 1010.8 |
| 20260904213047 | 73 | 230 | 0.0 | 0.0 | 0.00 | 0.00 | 0.00 | 61 | 1010.7 |
| 20260904211602 | 73 | 230 | 0.0 | 0.0 | 0.00 | 0.00 | 0.00 | 62 | 1010.6 |
| 20260904210049 | 74 | 230 | 0.0 | 0.0 | 0.00 | 0.00 | 0.00 | 59 | 1010.7 |
| 20260904204545 | 75 | 230 | 0.0 | 0.0 | 0.00 | 0.00 | 0.00 | 61 | 1010.5 |
| 20260904203051 | 75 | 230 | 0.0 | 0.0 | 0.00 | 0.00 | 0.00 | 57 | 1010.5 |
| 20260904201544 | 76 | 230 | 0.0 | 0.0 | 0.00 | 0.00 | 0.00 | 58 | 1010.6 |
| 20260904200046 | 77 | 230 | 0.0 | 0.0 | 0.00 | 0.00 | 0.00 | 56 | 1010.6 |
| 20260904194547 | 79 | 230 | 0.0 | 0.0 | 0.00 | 0.00 | 0.00 | 54 | 1010.6 |
| 20260904193044 | 80 | 230 | 0.0 | 0.0 | 0.00 | 0.00 | 0.00 | 54 | 1010.6 |
| 20260904191548 | 81 | 230 | 0.0 | 0.0 | 0.00 | 0.00 | 0.00 | 51 | 1010.6 |
| 20260904190047 | 81 | 230 | 0.0 | 10.0 | 0.00 | 0.00 | 0.00 | 50 | 1010.5 |
| 20260904184551 | 82 | 230 | 5.0 | 12.0 | 0.00 | 0.00 | 0.00 | 48 | 1010.4 |
| 20260904183045 | 83 | 230 | 5.0 | 13.0 | 0.00 | 0.00 | 0.00 | 47 | 1010.3 |
| 20260904181540 | 83 | 230 | 8.0 | 18.0 | 0.00 | 0.00 | 0.00 | 46 | 1010.2 |
| 20260904180048 | 84 | 208 | 1.0 | 9.0 | 0.00 | 0.00 | 0.00 | 45 | 1010.3 |
| 20260904174541 | 85 | 208 | 0.0 | 6.0 | 0.00 | 0.00 | 0.00 | 43 | 1010.3 |
| 20260904173043 | 87 | 208 | 0.0 | 7.0 | 0.00 | 0.00 | 0.00 | 42 | 1010.4 |
| 20260904171540 | 88 | 208 | 0.0 | 1.0 | 0.00 | 0.00 | 0.00 | 40 | 1010.5 |
| 20260904170044 | 89 | 208 | 0.0 | 1.0 | 0.00 | 0.00 | 0.00 | 39 | 1010.7 |
| 20260904164535 | 89 | 208 | 0.0 | 10.0 | 0.00 | 0.00 | 0.00 | 38 | 1010.8 |
| 20260904163032 | 89 | 208 | 0.0 | 12.0 | 0.00 | 0.00 | 0.00 | 37 | 1010.9 |
| 20260904161533 | 90 | 188 | 5.0 | 15.0 | 0.00 | 0.00 | 0.00 | 37 | 1011.1 |
| 20260904160029 | 90 | 244 | 6.0 | 16.0 | 0.00 | 0.00 | 0.00 | 36 | 1011.3 |
| 20260904154529 | 90 | 217 | 6.0 | 15.0 | 0.00 | 0.00 | 0.00 | 37 | 1011.5 |
| 20260904153026 | 89 | 207 | 4.0 | 17.0 | 0.00 | 0.00 | 0.00 | 37 | 1011.6 |
| 20260904151525 | 90 | 230 | 0.0 | 11.0 | 0.00 | 0.00 | 0.00 | 36 | 1011.8 |
| 20260904150033 | 91 | 303 | 3.0 | 17.0 | 0.00 | 0.00 | 0.00 | 34 | 1011.9 |
| 20260904144521 | 90 | 325 | 2.0 | 15.0 | 0.00 | 0.00 | 0.00 | 35 | 1012.0 |
| 20260904143019 | 90 | 354 | 6.0 | 19.0 | 0.00 | 0.00 | 0.00 | 35 | 1012.3 |
| 20260904141526 | 91 | 329 | 0.0 | 27.0 | 0.00 | 0.00 | 0.00 | 35 | 1012.6 |
| 20260904140030 | 90 | 328 | 9.0 | 27.0 | 0.00 | 0.00 | 0.00 | 37 | 1012.8 |
| 20260904134509 | 89 | 350 | 19.0 | 36.0 | 0.00 | 0.00 | 0.00 | 38 | 1013.0 |
| 20260904133009 | 88 | 348 | 12.0 | 26.0 | 0.00 | 0.00 | 0.00 | 38 | 1013.2 |
| 20260904131503 | 88 | 324 | 20.0 | 35.0 | 0.00 | 0.00 | 0.00 | 39 | 1013.5 |
| 20260904130100 | 87 | 319 | 15.0 | 34.0 | 0.00 | 0.00 | 0.00 | 39 | 1013.7 |
| 20260904124605 | 86 | 316 | 18.0 | 39.0 | 0.00 | 0.00 | 0.00 | 40 | 1014.0 |
| 20260904123054 | 86 | 288 | 12.0 | 39.0 | 0.00 | 0.00 | 0.00 | 40 | 1014.2 |
| 20260904121550 | 86 | 346 | 25.0 | 43.0 | 0.00 | 0.00 | 0.00 | 41 | 1014.5 |
| 20260904120054 | 86 | 323 | 22.0 | 40.0 | 0.00 | 0.00 | 0.00 | 41 | 1014.7 |
| 20260904114547 | 84 | 337 | 28.0 | 49.0 | 0.00 | 0.00 | 0.00 | 42 | 1014.9 |
| 20260904113046 | 85 | 304 | 14.0 | 38.0 | 0.00 | 0.00 | 0.00 | 42 | 1015.1 |
| 20260904111542 | 85 | 321 | 24.0 | 45.0 | 0.00 | 0.00 | 0.00 | 42 | 1015.5 |
| 20260904110043 | 84 | 309 | 13.0 | 38.0 | 0.00 | 0.00 | 0.00 | 44 | 1015.8 |
| 20260904104536 | 83 | 308 | 17.0 | 34.0 | 0.00 | 0.00 | 0.00 | 45 | 1016.0 |
| 20260904103036 | 83 | 311 | 20.0 | 47.0 | 0.00 | 0.00 | 0.00 | 45 | 1016.2 |
| 20260904101531 | 83 | 332 | 19.0 | 49.0 | 0.00 | 0.00 | 0.00 | 45 | 1016.1 |
| 20260904100028 | 82 | 350 | 28.0 | 46.0 | 0.00 | 0.00 | 0.00 | 45 | 1016.2 |
| 20260904094537 | 81 | 317 | 27.0 | 57.0 | 0.00 | 0.00 | 0.00 | 46 | 1016.5 |
| 20260904093021 | 81 | 312 | 30.0 | 49.0 | 0.00 | 0.00 | 0.00 | 47 | 1016.8 |
| 20260904091516 | 80 | 338 | 18.0 | 46.0 | 0.00 | 0.00 | 0.00 | 50 | 1017.0 |
| 20260904090013 | 79 | 325 | 19.0 | 41.0 | 0.00 | 0.00 | 0.00 | 51 | 1017.4 |
| 20260904084511 | 79 | 321 | 22.0 | 45.0 | 0.00 | 0.00 | 0.00 | 52 | 1017.5 |
| 20260904083007 | 78 | 302 | 16.0 | 32.0 | 0.00 | 0.00 | 0.00 | 53 | 1017.6 |
| 20260904081506 | 77 | 330 | 14.0 | 24.0 | 0.00 | 0.00 | 0.00 | 54 | 1017.8 |
| 20260904080105 | 76 | 323 | 14.0 | 31.0 | 0.00 | 0.00 | 0.00 | 55 | 1017.9 |
| 20260904074600 | 76 | 342 | 17.0 | 27.0 | 0.00 | 0.00 | 0.00 | 55 | 1017.9 |
| 20260904073104 | 75 | 310 | 10.0 | 33.0 | 0.00 | 0.00 | 0.00 | 57 | 1017.9 |
| 20260904071553 | 75 | 330 | 9.0 | 32.0 | 0.00 | 0.00 | 0.00 | 58 | 1017.8 |
| 20260904070052 | 75 | 331 | 13.0 | 36.0 | 0.00 | 0.00 | 0.00 | 57 | 1017.9 |
| 20260904064601 | 75 | 313 | 13.0 | 23.0 | 0.00 | 0.00 | 0.00 | 57 | 1017.8 |
| 20260904063106 | 74 | 341 | 9.0 | 27.0 | 0.00 | 0.00 | 0.00 | 58 | 1017.8 |
| 20260904061547 | 74 | 327 | 16.0 | 31.0 | 0.00 | 0.00 | 0.00 | 58 | 1017.7 |